Weather in Aksakovo

Russia / Republic of Bashkortostan     54°01′17″N   54°08′55″E
temp.,
°C
wind,
m/s
gust,
m/s
humid.,
%
clouds,
%
prec.,
mm/h
press.,
hPa
HPBL,
m
11 may, tue
tue1123:00+16ene22535 0.0 102112
02:00+15e22568 0.0 102117
05:00+14se11615 0.0 102311
08:00+16s12575 0.0 1024110
11:00+20ssw33446 0.0 1025815
14:00+22ssw323951 0.0 10252025
17:00+21s344799 0.0 1026512
20:00+18nw225575 0.0 102619
12 may, wed
wed1223:00+16ene115898 0.0 102711
02:00+15ese2263100 0.0 102811
05:00+14ene225886 0.0 102811
08:00+16ese355652 0.0 1028180
11:00+20se334546 0.0 1029781
14:00+22sse443692 0.0 10281798
17:00+22se343261 0.0 10281749
20:00+19sse23497 0.0 102839
13 may, thu
thu1323:00+15se11496 0.0 102911
02:00+14se225238 0.0 102911
05:00+13e225486 0.0 102912
08:00+16ese245599 0.0 1029145
11:00+21se454334 0.0 1029711
14:00+23sse453654 0.0 10281661
17:00+24sse34338 0.0 10271644
20:00+21sse22475 0.0 102619
14 may, fri
fri1423:00+17sse22460 0.0 102711
02:00+16se224923 0.0 102712
05:00+15se225234 0.0 102712
08:00+17sse2554100 0.0 1028149
11:00+22s463975 0.0 1027658
14:00+25ssw453116 0.0 10261843
17:00+26ssw453041 0.0 10262069
20:00+22sw234790 0.0 102529
15 may, sat
sat1523:00+18ssw22485 0.0 102511
02:00+17s23515 0.0 102517
05:00+16s22545 0.0 102513
08:00+19s24535 0.0 1025111
11:00+24s44374 0.0 1024693
14:00+26ssw34295 0.0 10232126
17:00+27sw34295 0.0 10232313
20:00+24ssw224417 0.0 102211